Weather History for Lubbock, TX

Change the Weather History Date:

Thursday, April 5, 2012

  Actual Average Record
Temperature  
Mean Temperature 60 °F 57 °F  
Max Temperature 81 °F 72 °F 92 °F (1946)
Min Temperature 38 °F 42 °F 21 °F (1917)
Degree Days  
Heating Degree Days 5 9  
Month to date heating degree days 25 45  
Since 1 July heating degree days 2923 3199  
Cooling Degree Days 0 1  
Month to date cooling degree days 10 5  
Year to date cooling degree days 62 12  
Growing Degree Days 10 (Base 50)    
Moisture  
Dew Point 34 °F    
Average Humidity 44    
Maximum Humidity 70    
Minimum Humidity 17    
Precipitation  
Precipitation 0.00 in 0.04 in 1.35 in (1940)
Month to date precipitation 0.00 0.20  
Year to date precipitation 1.29 2.70  
Snow  
Snow 0.00 in 0.00 in - ()
Month to date snowfall 0.0 0.1  
Since 1 July snowfall 6.8 8.1  
Snow Depth 0.00 in    
Sea Level Pressure  
Sea Level Pressure 29.83 in    
Wind  
Wind Speed 7 mph (East)    
Max Wind Speed 20 mph    
Max Gust Speed 24 mph    
Visibility 10 miles    
Events      
T = Trace of Precipitation, MM = Missing Value Source: NWS Daily Summary

Daily Weather History Graph

Daily Weather History Graph

Search for Another Location

Airport:

Trip Planner

Search our weather history database for the weather conditions in past years. The results will help you decide how hot, cold, wet, or windy it might be!

Date:

Astronomy

Apr. 05, 2012 Rise Set
Actual Time 7:28 AM CDT 8:11 PM CDT
Civil Twilight 7:03 AM CDT 8:36 PM CDT
Nautical Twilight 6:33 AM CDT 9:06 PM CDT
Astronomical Twilight 6:03 AM CDT 9:36 PM CDT
Moon 7:19 PM CDT (4/5) 6:24 AM CDT (4/5)
Length of Visible Light 13h 32m
Length of Day
12h 42m
Waxing Gibbous, 98% of the Moon is Illuminated
Apr 5
Waxing Gibbous
Apr 6
Full
Apr 13
Last Quarter
Apr 21
New
Apr 29
First Quarter

Hourly Weather History & Observations

Time (CDT) Temp. Windchill Dew Point Humidity Pressure Visibility Wind Dir Wind Speed Gust Speed Precip Events Conditions
12:53 AM 48.0 °F - 30.0 °F 50% 29.83 in 10.0 mi NE 4.6 mph - N/A   Clear
1:53 AM 46.0 °F 43.1 °F 30.0 °F 54% 29.83 in 10.0 mi ENE 5.8 mph - N/A   Clear
2:53 AM 44.1 °F 40.8 °F 30.9 °F 60% 29.83 in 10.0 mi NE 5.8 mph - N/A   Clear
3:53 AM 42.1 °F 39.2 °F 30.0 °F 62% 29.82 in 10.0 mi North 4.6 mph - N/A   Clear
4:53 AM 42.1 °F - 30.9 °F 65% 29.81 in 10.0 mi Calm Calm - N/A   Partly Cloudy
5:53 AM 39.9 °F - 28.9 °F 65% 29.83 in 10.0 mi Calm Calm - N/A   Clear
6:53 AM 39.9 °F 37.8 °F 30.0 °F 68% 29.84 in 10.0 mi NW 3.5 mph - N/A   Clear
7:53 AM 39.0 °F 36.8 °F 30.0 °F 70% 29.87 in 10.0 mi NNW 3.5 mph - N/A   Partly Cloudy
8:53 AM 48.0 °F - 37.0 °F 66% 29.88 in 10.0 mi Calm Calm - N/A   Partly Cloudy
9:53 AM 54.0 °F - 39.9 °F 59% 29.88 in 10.0 mi ESE 5.8 mph - N/A   Partly Cloudy
10:53 AM 59.0 °F - 37.9 °F 46% 29.89 in 10.0 mi Calm Calm - N/A   Partly Cloudy
11:53 AM 64.0 °F - 37.9 °F 38% 29.88 in 10.0 mi Calm Calm - N/A   Partly Cloudy
12:53 PM 69.1 °F - 37.0 °F 31% 29.86 in 10.0 mi SSW 5.8 mph - N/A   Partly Cloudy
1:53 PM 72.0 °F - 36.0 °F 27% 29.84 in 10.0 mi Calm Calm - N/A   Mostly Cloudy
2:53 PM 75.0 °F - 35.1 °F 23% 29.82 in 10.0 mi SE 6.9 mph - N/A   Scattered Clouds
3:53 PM 78.1 °F - 34.0 °F 20% 29.80 in 10.0 mi Variable 4.6 mph - N/A   Mostly Cloudy
4:53 PM 81.0 °F - 33.1 °F 18% 29.77 in 10.0 mi SSE 8.1 mph - N/A   Mostly Cloudy
5:53 PM 81.0 °F - 32.0 °F 17% 29.77 in 10.0 mi SE 8.1 mph 17.3 mph N/A   Mostly Cloudy
6:53 PM 78.1 °F - 35.1 °F 21% 29.77 in 10.0 mi ESE 15.0 mph - N/A   Mostly Cloudy
7:53 PM 75.0 °F - 35.1 °F 23% 29.78 in 10.0 mi ESE 16.1 mph - N/A   Mostly Cloudy
8:53 PM 70.0 °F - 35.1 °F 28% 29.80 in 10.0 mi ESE 15.0 mph - N/A   Mostly Cloudy
9:53 PM 66.0 °F - 37.9 °F 36% 29.82 in 10.0 mi ESE 18.4 mph - N/A   Scattered Clouds
10:53 PM 63.0 °F - 39.0 °F 41% 29.83 in 10.0 mi ESE 17.3 mph - N/A   Mostly Cloudy
11:53 PM 60.1 °F - 41.0 °F 49% 29.85 in 10.0 mi ESE 17.3 mph - N/A   Mostly Cloudy